Regional Weather Roundup
Issued by NWS

Home | Current Version | Previous Version | Graphics & Text | Print | Product List | Glossary On
Versions: 1 2 3 4 5 6 7 8 9 10 11 12 13 14 15 16 17 18 19 20 21 22 23 24 25 26 27 28 29 30 31 32 33 34 35 36 37 38 39 40 41 42 43 44 45 46 47 48 49 50
000
ASUS45 KSLC 191010
RWRUT

UTAH REGIONAL WEATHER ROUNDUP
NATIONAL WEATHER SERVICE SALT LAKE CITY UT
300 AM MST FRI DEC 19 2014

UTZ001>011-023>025-191100-

NORTHERN UTAH

CITY           SKY/WX    TMP DP  RH WIND       PRES   REMARKS
BRIGHAM CITY   CLOUDY    31  28  88 CALM      30.19S
HILL AFB       CLOUDY    32  24  74 E13       30.17S WCI  22
LOGAN          CLOUDY    30  26  85 E3        30.18S
OGDEN          CLOUDY    31  26  82 S6        30.18R WCI  25
PROVO AIRPORT  CLEAR     27  21  80 SE5       30.21S WCI  21
SALT LAKE CITY PTCLDY    32  27  81 S9        30.18S WCI  24
VERNAL         CLOUDY    27  23  85 E5        30.23R WCI  22
WENDOVER       MOCLDY    25  18  74 CALM      30.18R
HEBER CITY     MOCLDY    19  18  93 SE3       30.20S
WEST JORDAN    CLEAR     30  30 100 S10       30.19R WCI  21

$$

UTZ012>022-026-027-191100-

SOUTHERN/CENTRAL UTAH

CITY           SKY/WX    TMP DP  RH WIND       PRES   REMARKS
BLANDING       CLEAR     26  23  90 CALM      30.26R
BRYCE CANYON   PTCLDY    10   7  87 W10       30.20R WCI  -4
CEDAR CITY     CLEAR     22  18  85 CALM      30.19R
DELTA          PTCLDY    26  24  89 CALM      30.20S
MILFORD        CLEAR     24  20  84 S8        30.19R WCI  15
MOAB/CYNLANDS  CLOUDY    31  30  96 CALM      30.19S
PRICE          CLEAR     21  16  81 N5        30.18R WCI  15
ST GEORGE      SUNNY     34  28  80 S5        30.25S WCI  30

$$

REGIONAL REPORTS     COLORADO/ARIZONA

CITY           SKY/WX    TMP DP  RH WIND       PRES   REMARKS
CRAIG, CO      FOG       22  18  85 SW3       30.19R VSB 1/2
GRAND JUNCTION CLOUDY    31  28  89 SE5       30.20R WCI  26
RIFLE          CLOUDY    29  25  85 CALM      30.19R
MONTROSE       CLOUDY    32  30  92 CALM      30.20S
CORTEZ         CLEAR     19  16  88 CALM      30.19R
PAGE, AZ       CLEAR     33  28  81 CALM      30.21R
GRAND CANYON   MOCLDY    18  15  88 CALM      30.21S
KINGMAN        CLEAR     32  29  88 CALM      30.21S
FLAGSTAFF      PTCLDY    13   8  81 CALM      30.19S

$$

REGIONAL REPORTS    NEVADA/IDAHO/WYOMING

CITY           SKY/WX    TMP DP  RH WIND       PRES   REMARKS
LAS VEGAS, NV  PTCLDY    42  35  76 S8        30.19R
ELY            PTCLDY    19  16  88 S12       30.19S WCI   7
ELKO           MOCLDY    24  22  91 E6        30.13S WCI  17
POCATELLO, ID  CLOUDY    37  28  70 S10       30.13S WCI  30
BURLEY         CLOUDY    39  27  62 S13       30.10S WCI  31
EVANSTON, WY   PTCLDY    20  18  92 SW7       30.15S WCI  11
ROCK SPRINGS   PTCLDY    22  17  81 SW15      30.13R WCI   9
KEMMERER       CLEAR     21  19  93 W5        30.14R WCI  15

$$


USA.gov is the U.S. government's official web portal to all federal, state and local government web resources and services.